Date String (YYYY-MM-DD hh:mm:ss) UTC,Instrument flags,Ambient pressure (hPa),Sample flow (lpm),Bypass flow (lpm),Sample temperature (°C),Ambient temperature (°C),ASC tube jacket temperature (°C),LED temperature (°C),Box temperature (°C),Sample RH (%),Span deviation,Mass concentration (μg/m³),Mass concentration (μg/m³),Mass concentration (μg/m³)
DateTimeUTC,F1_M11,P_M11,Q1_M11,Q2_M11,T1_M11,T2_M11,T3_M11,T4_M11,T5_M11,U1_M11,ZSPAN_M11,X0_M11,X2_M11,X1_M11
2021-11-26 14:00:00,,0829.2,5.00,0.00,26.0,25.1,00.0,35.0,27.8,09.4,0000.0,0001.10,0000.63,0000.41
2021-11-26 14:01:00,,0829.2,5.00,0.00,26.0,25.1,00.0,35.0,27.8,09.4,0000.0,0002.09,0000.68,0000.42
2021-11-26 14:02:00,,0829.3,5.01,0.00,26.0,25.1,00.0,35.0,27.7,09.4,0000.0,0002.41,0000.71,0000.44
2021-11-26 14:03:00,,0829.3,5.00,0.00,26.0,25.1,00.0,35.0,27.7,09.4,0000.0,0002.42,0000.72,0000.45
2021-11-26 14:04:00,,0829.3,5.00,0.00,26.0,25.1,00.0,35.0,27.7,09.4,0000.0,0002.40,0000.72,0000.46
2021-11-26 14:05:00,,0829.3,4.99,0.00,26.0,25.1,00.0,35.0,27.7,09.4,0000.0,0002.47,0000.75,0000.46
2021-11-26 14:06:00,,0829.2,5.00,0.00,26.0,25.1,00.0,35.0,27.7,09.4,0000.0,0002.47,0000.75,0000.46
2021-11-26 14:07:00,,0829.3,5.02,0.00,25.9,25.0,00.0,35.0,27.7,09.4,0000.0,0002.48,0000.75,0000.45
2021-11-26 14:08:00,,0829.2,4.99,0.00,25.9,25.0,00.0,35.0,27.7,09.5,0000.0,0002.52,0000.76,0000.45
2021-11-26 14:09:00,,0829.3,5.01,0.00,25.9,25.0,00.0,35.0,27.7,09.5,0000.0,0002.65,0000.79,0000.44
2021-11-26 14:10:00,,0829.3,4.99,0.00,25.9,25.0,00.0,34.9,27.7,09.5,0000.0,0002.59,0000.77,0000.44
2021-11-26 14:11:00,,0829.3,5.00,0.00,25.9,25.0,00.0,34.9,27.7,09.5,0000.0,0002.48,0000.71,0000.42
2021-11-26 14:12:00,,0829.3,5.01,0.00,25.9,25.0,00.0,34.9,27.7,09.5,0000.0,0001.69,0000.69,0000.41
2021-11-26 14:13:00,,0829.3,4.99,0.00,25.9,25.0,00.0,34.9,27.7,09.5,0000.0,0001.25,0000.66,0000.40
2021-11-26 14:14:00,,0829.3,4.99,0.00,25.9,25.0,00.0,34.9,27.7,09.5,0000.0,0001.18,0000.63,0000.38
2021-11-26 14:15:00,,0829.2,5.01,0.00,25.9,25.0,00.0,34.9,27.6,09.5,0000.0,0001.64,0000.62,0000.38
2021-11-26 14:16:00,,0829.3,4.99,0.00,25.8,25.0,00.0,34.9,27.6,09.5,0000.0,0001.88,0000.60,0000.38
2021-11-26 14:17:00,,0829.3,4.99,0.00,25.8,24.9,00.0,34.9,27.6,09.5,0000.0,0001.93,0000.62,0000.38
2021-11-26 14:18:00,,0829.2,5.00,0.00,25.8,24.9,00.0,34.9,27.6,09.5,0000.0,0001.98,0000.63,0000.38
2021-11-26 14:19:00,,0829.1,5.00,0.00,25.8,24.9,00.0,34.9,27.6,09.5,0000.0,0002.03,0000.64,0000.39
2021-11-26 14:20:00,,0829.1,4.99,0.00,25.8,24.9,00.0,34.9,27.6,09.5,0000.0,0001.96,0000.63,0000.40
2021-11-26 14:21:00,,0829.1,5.01,0.00,25.8,25.0,00.0,34.8,27.6,09.5,0000.0,0002.03,0000.66,0000.40
2021-11-26 14:22:00,,0829.2,5.00,0.00,25.8,25.0,00.0,34.8,27.6,09.5,0000.0,0002.10,0000.71,0000.41
2021-11-26 14:23:00,,0829.1,4.99,0.00,25.8,25.0,00.0,34.8,27.6,09.5,0000.0,0002.04,0000.71,0000.41
2021-11-26 14:24:00,,0829.1,5.00,0.00,25.8,25.0,00.0,34.8,27.6,09.5,0000.0,0002.09,0000.73,0000.41
2021-11-26 14:25:00,,0829.1,5.00,0.00,25.9,25.1,00.0,34.8,27.6,09.5,0000.0,0002.15,0000.76,0000.41
2021-11-26 14:26:00,,0829.1,5.00,0.00,25.9,25.1,00.0,34.9,27.7,09.5,0000.0,0001.82,0000.78,0000.42
2021-11-26 14:27:00,,0829.1,4.99,0.00,25.9,25.1,00.0,34.9,27.7,09.5,0000.0,0001.50,0000.78,0000.41
2021-11-26 14:28:00,,0829.0,5.00,0.00,25.9,25.1,00.0,34.9,27.7,09.5,0000.0,0001.44,0000.75,0000.41
2021-11-26 14:29:00,,0829.1,5.01,0.00,25.9,25.1,00.0,34.9,27.7,09.4,0000.0,0001.33,0000.73,0000.41
2021-11-26 14:30:00,,0829.1,4.99,0.00,25.9,25.1,00.0,34.9,27.8,09.4,0000.0,0001.28,0000.70,0000.40
2021-11-26 14:31:00,,0829.0,5.00,0.00,25.9,25.2,00.0,34.9,27.8,09.4,0000.0,0001.33,0000.68,0000.39
2021-11-26 14:32:00,,0829.1,4.99,0.00,26.0,25.2,00.0,34.9,27.8,09.3,0000.0,0001.25,0000.66,0000.39
2021-11-26 14:33:00,,0829.0,5.01,0.00,26.0,25.2,00.0,34.9,27.8,09.3,0000.0,0001.26,0000.65,0000.39
2021-11-26 14:34:00,,0829.1,4.99,0.00,26.0,25.2,00.0,34.9,27.8,09.4,0000.0,0001.21,0000.62,0000.39
2021-11-26 14:35:00,,0829.1,5.01,0.00,26.0,25.2,00.0,34.9,27.8,09.4,0000.0,0001.23,0000.63,0000.39
2021-11-26 14:36:00,,0829.0,4.99,0.00,26.0,25.2,00.0,34.9,27.8,09.4,0000.0,0001.19,0000.61,0000.39
2021-11-26 14:37:00,,0829.1,5.00,0.00,26.0,25.2,00.0,34.9,27.8,09.3,0000.0,0001.15,0000.59,0000.40
2021-11-26 14:38:00,,0829.1,5.01,0.00,26.0,25.3,00.0,34.9,27.8,09.3,0000.0,0001.17,0000.62,0000.40
2021-11-26 14:39:00,,0829.1,4.98,0.00,26.0,25.3,00.0,34.9,27.9,09.4,0000.0,0001.18,0000.63,0000.40
2021-11-26 14:40:00,,0829.1,5.01,0.00,26.0,25.3,00.0,35.0,27.9,09.4,0000.0,0001.22,0000.64,0000.40
2021-11-26 14:41:00,,0829.1,4.99,0.00,26.1,25.3,00.0,35.0,27.9,09.4,0000.0,0001.31,0000.66,0000.41
2021-11-26 14:42:00,,0829.1,5.01,0.00,26.1,25.3,00.0,35.0,27.9,09.4,0000.0,0001.22,0000.65,0000.41
2021-11-26 14:43:00,,0829.1,4.99,0.00,26.1,25.3,00.0,35.0,27.9,09.4,0000.0,0001.23,0000.66,0000.41
2021-11-26 14:44:00,,0829.1,5.00,0.00,26.1,25.3,00.0,35.0,27.9,09.4,0000.0,0001.18,0000.65,0000.41
2021-11-26 14:45:00,,0829.1,5.01,0.00,26.1,25.3,00.0,35.0,27.9,09.4,0000.0,0001.25,0000.68,0000.41
2021-11-26 14:46:00,,0829.1,4.99,0.00,26.1,25.3,00.0,35.0,27.9,09.4,0000.0,0001.26,0000.67,0000.40
2021-11-26 14:47:00,,0829.1,5.01,0.00,26.1,25.3,00.0,35.0,28.0,09.4,0000.0,0001.22,0000.66,0000.40
2021-11-26 14:48:00,,0829.0,5.00,0.00,26.1,25.3,00.0,35.0,27.9,09.4,0000.0,0001.28,0000.69,0000.39
2021-11-26 14:49:00,,0829.1,5.00,0.00,26.1,25.4,00.0,35.0,27.9,09.4,0000.0,0001.30,0000.65,0000.38
2021-11-26 14:50:00,,0829.1,5.01,0.00,26.2,25.4,00.0,35.1,27.9,09.4,0000.0,0001.35,0000.63,0000.37
2021-11-26 14:51:00,,0829.0,4.99,0.00,26.2,25.4,00.0,35.1,28.0,09.4,0000.0,0001.37,0000.64,0000.37
2021-11-26 14:52:00,,0829.1,4.99,0.00,26.2,25.4,00.0,35.1,28.0,09.4,0000.0,0001.45,0000.64,0000.37
2021-11-26 14:53:00,,0829.0,5.01,0.00,26.2,25.4,00.0,35.1,28.0,09.4,0000.0,0001.58,0000.64,0000.37
2021-11-26 14:54:00,,0829.1,5.00,0.00,26.2,25.4,00.0,35.1,27.9,09.4,0000.0,0001.57,0000.64,0000.38
2021-11-26 14:55:00,,0829.1,5.00,0.00,26.2,25.4,00.0,35.1,28.0,09.4,0000.0,0001.63,0000.65,0000.38
2021-11-26 14:56:00,,0829.1,5.01,0.00,26.2,25.4,00.0,35.1,28.0,09.4,0000.0,0001.55,0000.61,0000.38
2021-11-26 14:57:00,,0829.1,4.98,0.00,26.2,25.4,00.0,35.1,28.0,09.4,0000.0,0001.56,0000.64,0000.38
2021-11-26 14:58:00,,0829.1,5.00,0.00,26.2,25.4,00.0,35.1,28.0,09.4,0000.0,0001.57,0000.64,0000.39
2021-11-26 14:59:00,,0829.2,5.00,0.00,26.2,25.4,00.0,35.1,28.0,09.4,0000.0,0001.51,0000.62,0000.40
